Regional Weather Roundup
Issued by NWS

Home | Current Version | Previous Version | Graphics & Text | Print | Product List | Glossary On
Versions: 1 2 3 4 5 6 7 8 9 10 11 12 13 14 15 16 17 18 19 20 21 22 23 24 25 26 27 28 29 30 31 32 33 34 35 36 37 38 39 40 41 42 43 44 45 46 47 48 49 50
000
ASUS43 KMKX 051821
RWRWI

WISCONSIN REGIONAL WEATHER ROUNDUP
NATIONAL WEATHER SERVICE MILWAUKEE/SULLIVAN WI
1200 PM CST MON DEC 05 2016

NOTE: "FAIR" INDICATES FEW OR NO CLOUDS BELOW 12,000 FEET WITH NO
SIGNIFICANT WEATHER AND/OR OBSTRUCTIONS TO VISIBILITY.

WIZ001-002-006>008-014>016-023>028-051900-
NORTHWEST WISCONSIN

CITY           SKY/WX    TMP DP  RH WIND       PRES   REMARKS
SUPERIOR ARPT  PTSUNNY   38  31  75 S7        29.81S WCI  33
6HR MIN TEMP:  32; 6HR MAX TEMP:  38;

ASHLAND        SUNNY     39  30  70 CALM      29.82S
6HR MIN TEMP:  33; 6HR MAX TEMP:  39;

HAYWARD        PTSUNNY   33  28  81 SE6       29.81F WCI  28
6HR MIN TEMP:  26; 6HR MAX TEMP:  33;

SIREN          MOSUNNY   37  29  72 E7        29.75F WCI  31
6HR MIN TEMP:  24; 6HR MAX TEMP:  37;

CUMBERLAND     FOG       30  28  93 SE8G17    29.78F VSB 3/4 WCI  23
RICE LAKE      CLOUDY    30  30  98 E8        29.80F FOG     WCI  23
6HR MIN TEMP:  22; 6HR MAX TEMP:  30;

CHETEK         FOG       31  31 100 SE9       29.80F VSB 1   WCI  22
6HR MIN TEMP:  21; 6HR MAX TEMP:  31;

LADYSMITH      CLOUDY    32  31  98 SE7       29.84F FOG     WCI  25
6HR MIN TEMP:  26; 6HR MAX TEMP:  32;

EAU CLAIRE     CLOUDY    33  32  96 SE10      29.81F FOG     WCI  25
6HR MIN TEMP:  25; 6HR MAX TEMP:  33;

MENOMONIE      CLOUDY    33  33 100 E9        29.80F FOG     WCI  26
6HR MIN TEMP:  21; 6HR MAX TEMP:  33;

NEW RICHMOND   CLOUDY    33  33 100 E13       29.74F FOG     WCI  24
6HR MIN TEMP:  24; 6HR MAX TEMP:  33;

OSCEOLA        CLOUDY    33  33 100 SE16      29.77F WCI  23
6HR MIN TEMP:  23; 6HR MAX TEMP:  33;

$$

WIZ003>005-009-010-017-018-051900-
NORTH CENTRAL WISCONSIN

CITY           SKY/WX    TMP DP  RH WIND       PRES   REMARKS
MANITOWISH WTR SUNNY     34  30  85 S8        29.81R WCI  27
6HR MIN TEMP:  31; 6HR MAX TEMP:  34;

ARBOR VITAE    SUNNY     37  32  82 S7        29.82R WCI  31
6HR MIN TEMP:  32; 6HR MAX TEMP:  37;

WOODRUFF       SUNNY     37  32  82 S7        29.82R WCI  31
6HR MIN TEMP:  32; 6HR MAX TEMP:  37;

RHINELANDER    SUNNY     36  29  75 S9        29.83F WCI  29
6HR MIN TEMP:  30; 6HR MAX TEMP:  36;

EAGLE RIVER    SUNNY     35  28  75 SW3       29.81F
6HR MIN TEMP:  31; 6HR MAX TEMP:  35;

LAND O LAKES   SUNNY     38  29  70 SW5       29.82S WCI  34
6HR MIN TEMP:  32; 6HR MAX TEMP:  38; 6HR PCP:  0.11;

PHILLIPS       PTSUNNY   31  29  92 CALM      29.82F
6HR MIN TEMP:  29; 6HR MAX TEMP:  31;

TOMAHAWK       PTSUNNY   32  28  86 S3        29.85F
6HR MIN TEMP:  30; 6HR MAX TEMP:  33;

MEDFORD        CLOUDY    30  29  95 SE6       29.83F WCI  24
6HR MIN TEMP:  28; 6HR MAX TEMP:  31;

MERRILL        CLOUDY    32  30  91 S3        29.87S
6HR MIN TEMP:  31; 6HR MAX TEMP:  33;

$$

WIZ029-030-035-036-043>047-051900-
CENTRAL WISCONSIN

CITY           SKY/WX    TMP DP  RH WIND       PRES   REMARKS
WAUSAU         CLOUDY    32  30  92 S6        29.86S WCI  26
6HR MIN TEMP:  31; 6HR MAX TEMP:  32;

MOSINEE        CLOUDY    32  32 100 SE6       29.88F WCI  26
MARSHFIELD     CLOUDY    32  30  92 SE7       29.85F FOG     WCI  26
6HR MIN TEMP:  31; 6HR MAX TEMP:  32;

STEVENS POINT  CLOUDY    31  30  98 SE6       29.89F WCI  25
6HR MIN TEMP:  30; 6HR MAX TEMP:  32;

WAUPACA        CLOUDY    36  32  85 CALM      29.92F
6HR MIN TEMP:  32; 6HR MAX TEMP:  36;

WAUTOMA        CLOUDY    35  32  88 S6        29.92S FOG     WCI  30
6HR MIN TEMP:  33; 6HR MAX TEMP:  36;

WISC RAPIDS    CLOUDY    33  33 100 S6        29.89F FOG     WCI  28
6HR MIN TEMP:  32; 6HR MAX TEMP:  33;

CAMP DOUGLAS   NOT AVBL
$$

WIZ011>013-019>022-031-037>040-048>050-051900-
NORTHEAST WISCONSIN

CITY           SKY/WX    TMP DP  RH WIND       PRES   REMARKS
ANTIGO         CLOUDY    33  29  86 S6        29.86S WCI  28
6HR MIN TEMP:  29; 6HR MAX TEMP:  33;

SHAWANO        CLOUDY    37  31  81 SW5       29.92S WCI  33
6HR MIN TEMP:  33; 6HR MAX TEMP:  37;

OCONTO         CLOUDY    35  30  83 SW12      29.93R WCI  26
6HR MIN TEMP:  32; 6HR MAX TEMP:  35;

STURGEON BAY   CLOUDY    35  30  82 SW9       29.94R WCI  28
6HR MIN TEMP:  34; 6HR MAX TEMP:  38;

GREEN BAY      CLOUDY    36  31  82 S8        29.94R WCI  30
6HR MIN TEMP:  33; 6HR MAX TEMP:  36;

MANITOWOC      CLOUDY    35  30  82 SW8       29.96S WCI  29
6HR MIN TEMP:  32; 6HR MAX TEMP:  38;

APPLETON       CLOUDY    34  32  93 S8        29.92R WCI  27
CLINTONVILLE   CLOUDY    34  30  86 S8        29.92R WCI  27
OSHKOSH        CLOUDY    34  31  88 S9        29.93S FOG     WCI  27
6HR MIN TEMP:  32; 6HR MAX TEMP:  34;

$$

WIZ032>034-041-042-053>061-051900-
SOUTHWEST WISCONSIN

CITY           SKY/WX    TMP DP  RH WIND       PRES   REMARKS
LA CROSSE      CLOUDY    38  33  82 S10       29.85F WCI  31
6HR MIN TEMP:  35; 6HR MAX TEMP:  38;

SPARTA         CLOUDY    36  33  88 S6        29.87F WCI  31
6HR MIN TEMP:  31; 6HR MAX TEMP:  36; 6HR PCP:  0.10;

VIROQUA        CLOUDY    33  33 100 S6        29.86F WCI  28
6HR MIN TEMP:  32; 6HR MAX TEMP:  33;

BOSCOBEL       CLOUDY    36  32  85 E6        29.91F WCI  31
6HR MIN TEMP:  34; 6HR MAX TEMP:  36;

PRAIRIE DU CHI CLOUDY    34  32  90 SE7       29.90S FOG     WCI  28
6HR MIN TEMP:  33; 6HR MAX TEMP:  35; 6HR PCP:  0.08;

PLATTEVILLE    CLOUDY    33  33 100 SE12      29.91F VSB 1/2 WCI  24
6HR MIN TEMP:  32; 6HR MAX TEMP:  33;

$$

WIZ056-057-062-063-064-067-068-051900-
SOUTH CENTRAL WISCONSIN

CITY           SKY/WX    TMP DP  RH WIND       PRES   REMARKS
REEDSBURG      CLOUDY    33  33  99 SE5       29.90F FOG     WCI  29
6HR MIN TEMP:  32; 6HR MAX TEMP:  33;

BARABOO/DELLS  CLOUDY    33  32  96 S8        29.91S FOG     WCI  26
6HR MIN TEMP:  32; 6HR MAX TEMP:  33;

LONE ROCK      CLOUDY    36  31  82 S7        29.92F WCI  30
6HR MIN TEMP:  33; 6HR MAX TEMP:  35;

MINERAL POINT  FOG       34  34 100 S16       29.90F VSB 3/4 WCI  23
MADISON        CLOUDY    33  31  92 S15       29.94S FOG     WCI  23
6HR MIN TEMP:  33; 6HR MAX TEMP:  33;

MIDDLETON      CLOUDY    35  35 100 S12       29.94S WCI  26
6HR MIN TEMP:  34; 6HR MAX TEMP:  35;

WATERTOWN      CLOUDY    32  32 100 S9        29.95S FOG     WCI  25
6HR MIN TEMP:  32; 6HR MAX TEMP:  33;

MONROE         FOG       32  32 100 S18       29.94F VSB 1/2 WCI  20
JANESVILLE     FOG       34  34 100 S9        29.97S VSB 1   WCI  26
$$

WIZ051-052-058>065-066-070>072-051900-
SOUTHEAST WISCONSIN

CITY           SKY/WX    TMP DP  RH WIND       PRES   REMARKS
MILWAUKEE      CLOUDY    34  31  88 S12       29.98S FOG     WCI  25
6HR MIN TEMP:  34; 6HR MAX TEMP:  35;

WAUKESHA       CLOUDY    30  30 100 S7        29.97F FOG     WCI  23
MILWAUKEE/TIMM CLOUDY    34  30  86 S10       29.98F FOG     WCI  26
RACINE         CLOUDY    33  31  92 S8        30.00F FOG     WCI  26
6HR MIN TEMP:  33; 6HR MAX TEMP:  33;

BURLINGTON     CLOUDY    32  32  99 SW13      29.98S FOG     WCI  22
6HR MIN TEMP:  32; 6HR MAX TEMP:  33;

KENOSHA        CLOUDY    33  31  92 S12       29.99F FOG     WCI  24
6HR MIN TEMP:  32; 6HR MAX TEMP:  33;

FOND DU LAC    CLOUDY    34  30  85 S9        29.94S WCI  27
6HR MIN TEMP:  33; 6HR MAX TEMP:  34;

SHEBOYGAN      CLOUDY    34  30  85 SW8       29.95F WCI  27
6HR MIN TEMP:  31; 6HR MAX TEMP:  34;

WEST BEND      CLOUDY    32  32 100 SW7       29.95S WCI  26
JUNEAU         CLOUDY    32  31  98 S12       29.95S FOG     WCI  23
6HR MIN TEMP:  32; 6HR MAX TEMP:  32;

$$

LSZ147-162-051900-
LAKE SUPERIOR

STATION/POSITION TIME  TEMP    WIND        PRES    WAVE
                       AIR SEA DIR/SP/G            HT/PER
                 (UTC) (F)     (DEG/KT/KT) (MB)    (FT/S)
DEVILS ISLAND    1800   36     280/  7/  8 1010.4R
PORT WING        1740   36     340/  3/  5 1010.2S
SAXON HARBOR     1740   40     200/  3/  6 1009.8F
$$

LMZ867-665-643>646-051900-
LAKE MICHIGAN

STATION/POSITION TIME  TEMP    WIND        PRES    WAVE
                       AIR SEA DIR/SP/G            HT/PER
                 (UTC) (F)  C1F1C2F2C3F3C4F4C5F5C6F6C7F7C8M1C9M2Ca!


USA.gov is the U.S. government's official web portal to all federal, state and local government web resources and services.